• In Deutschland
  • Länderverzeichnis
  • Für 7 Tage
  • Wassertemperatur
  • Satellitenkarten
  • Wetterkarte
  • Widgets
  • user-avatar
    Anmelden

    Stündliche Wetter Lubango

    Heute, 26 Juni, Montag

    Zeit Temperatur Niederschläge Wind Luftdruck Luftfeuchtigkeit
    00:00 +7°C° 0 mm 1 m/S 606 mmHg 80%
    01:00 +5°C° 0 mm 0 m/S 605 mmHg 81%
    02:00 +5°C° 0 mm 0 m/S 605 mmHg 80%
    03:00 +5°C° 0 mm 0 m/S 605 mmHg 78%
    04:00 +6°C° 0 mm 1 m/S 605 mmHg 77%
    05:00 +6°C° 0 mm 1 m/S 605 mmHg 74%
    06:00 +7°C° 0 mm 1 m/S 606 mmHg 71%
    07:00 +7°C° 0 mm 1 m/S 606 mmHg 68%
    08:00 +13°C° 0 mm 1 m/S 608 mmHg 52%
    09:00 +19°C° 0 mm 1 m/S 611 mmHg 36%
    10:00 +24°C° 0 mm 1 m/S 613 mmHg 21%
    11:00 +25°C° 0 mm 1 m/S 613 mmHg 19%
    12:00 +26°C° 0 mm 2 m/S 613 mmHg 18%
    13:00 +27°C° 0 mm 3 m/S 613 mmHg 16%
    14:00 +26°C° 0 mm 3 m/S 612 mmHg 17%
    15:00 +26°C° 0 mm 3 m/S 612 mmHg 18%
    16:00 +25°C° 0 mm 3 m/S 611 mmHg 19%
    17:00 +20°C° 0 mm 3 m/S 610 mmHg 30%
    18:00 +16°C° 0 mm 2 m/S 609 mmHg 42%
    19:00 +12°C° 0 mm 2 m/S 608 mmHg 53%
    20:00 +10°C° 0 mm 2 m/S 608 mmHg 59%
    21:00 +10°C° 0 mm 1 m/S 608 mmHg 65%
    22:00 +10°C° 0 mm 1 m/S 608 mmHg 70%
    23:00 +9°C° 0 mm 1 m/S 608 mmHg 72%

    Morgen, 27 Juni, Dienstag

    Zeit Temperatur Niederschläge Wind Luftdruck Luftfeuchtigkeit
    00:00 +9°C° 0 mm 1 m/S 608 mmHg 74%
    01:00 +8°C° 0 mm 1 m/S 607 mmHg 76%
    02:00 +8°C° 0 mm 1 m/S 607 mmHg 76%
    03:00 +8°C° 0 mm 1 m/S 607 mmHg 76%
    04:00 +7°C° 0 mm 1 m/S 606 mmHg 76%
    05:00 +8°C° 0 mm 1 m/S 607 mmHg 73%
    06:00 +8°C° 0 mm 1 m/S 607 mmHg 70%
    07:00 +8°C° 0 mm 1 m/S 607 mmHg 67%
    08:00 +13°C° 0 mm 1 m/S 610 mmHg 52%
    09:00 +19°C° 0 mm 1 m/S 612 mmHg 38%
    10:00 +24°C° 0 mm 1 m/S 614 mmHg 23%
    11:00 +25°C° 0 mm 1 m/S 614 mmHg 20%
    12:00 +27°C° 0 mm 1 m/S 614 mmHg 18%
    13:00 +28°C° 0 mm 1 m/S 614 mmHg 16%
    14:00 +27°C° 0 mm 2 m/S 613 mmHg 17%
    15:00 +27°C° 0 mm 2 m/S 613 mmHg 17%
    16:00 +26°C° 0 mm 3 m/S 612 mmHg 18%
    17:00 +21°C° 0 mm 2 m/S 611 mmHg 25%
    18:00 +17°C° 0 mm 2 m/S 610 mmHg 31%
    19:00 +13°C° 0 mm 2 m/S 608 mmHg 38%
    20:00 +12°C° 0 mm 2 m/S 608 mmHg 41%
    21:00 +12°C° 0 mm 2 m/S 608 mmHg 44%
    22:00 +11°C° 0 mm 1 m/S 608 mmHg 47%
    23:00 +10°C° 0 mm 1 m/S 608 mmHg 49%

    übermorgen, 28 Juni, Mittwoch

    Zeit Temperatur Niederschläge Wind Luftdruck Luftfeuchtigkeit
    00:00 +10°C° 0 mm 1 m/S 608 mmHg 50%
    01:00 +9°C° 0 mm 1 m/S 607 mmHg 51%
    02:00 +9°C° 0 mm 1 m/S 607 mmHg 53%
    03:00 +9°C° 0 mm 1 m/S 607 mmHg 54%
    04:00 +9°C° 0 mm 1 m/S 606 mmHg 56%
    05:00 +9°C° 0 mm 1 m/S 606 mmHg 55%
    06:00 +9°C° 0 mm 1 m/S 607 mmHg 55%
    07:00 +9°C° 0 mm 1 m/S 607 mmHg 54%
    08:00 +13°C° 0 mm 1 m/S 609 mmHg 42%
    09:00 +19°C° 0 mm 1 m/S 611 mmHg 30%
    10:00 +24°C° 0 mm 1 m/S 614 mmHg 18%
    11:00 +26°C° 0 mm 1 m/S 614 mmHg 16%
    12:00 +27°C° 0 mm 1 m/S 614 mmHg 14%
    13:00 +29°C° 0 mm 1 m/S 614 mmHg 12%
    14:00 +28°C° 0 mm 1 m/S 613 mmHg 12%
    15:00 +27°C° 0 mm 1 m/S 612 mmHg 12%
    16:00 +27°C° 0 mm 2 m/S 611 mmHg 12%
    17:00 +21°C° 0 mm 2 m/S 610 mmHg 19%
    18:00 +16°C° 0 mm 2 m/S 608 mmHg 26%
    19:00 +12°C° 0 mm 1 m/S 607 mmHg 33%
    20:00 +11°C° 0 mm 1 m/S 607 mmHg 33%
    21:00 +11°C° 0 mm 1 m/S 607 mmHg 33%
    22:00 +10°C° 0 mm 1 m/S 607 mmHg 34%
    23:00 +10°C° 0 mm 1 m/S 607 mmHg 33%

    29 Juni, Donnerstag

    Zeit Temperatur Niederschläge Wind Luftdruck Luftfeuchtigkeit
    00:00 +10°C° 0 mm 1 m/S 607 mmHg 33%
    01:00 +10°C° 0 mm 1 m/S 606 mmHg 32%
    02:00 +10°C° 0 mm 1 m/S 606 mmHg 32%
    03:00 +9°C° 0 mm 1 m/S 606 mmHg 31%
    04:00 +9°C° 0 mm 1 m/S 606 mmHg 31%
    05:00 +9°C° 0 mm 1 m/S 606 mmHg 30%
    06:00 +10°C° 0 mm 1 m/S 607 mmHg 30%
    07:00 +10°C° 0 mm 1 m/S 607 mmHg 29%
    08:00 +14°C° 0 mm 2 m/S 610 mmHg 25%
    09:00 +19°C° 0 mm 2 m/S 612 mmHg 21%
    10:00 +25°C° 0 mm 2 m/S 614 mmHg 16%
    11:00 +26°C° 0 mm 2 m/S 614 mmHg 15%
    12:00 +27°C° 0 mm 2 m/S 613 mmHg 15%
    13:00 +28°C° 0 mm 2 m/S 613 mmHg 14%
    14:00 +27°C° 0 mm 2 m/S 613 mmHg 14%
    15:00 +27°C° 0 mm 2 m/S 612 mmHg 15%
    16:00 +26°C° 0 mm 3 m/S 612 mmHg 15%
    17:00 +21°C° 0 mm 2 m/S 611 mmHg 23%
    18:00 +16°C° 0 mm 2 m/S 609 mmHg 31%
    19:00 +12°C° 0 mm 2 m/S 608 mmHg 39%
    20:00 +11°C° 0 mm 1 m/S 608 mmHg 45%
    21:00 +10°C° 0 mm 1 m/S 608 mmHg 52%
    22:00 +8°C° 0 mm 1 m/S 608 mmHg 59%
    23:00 +8°C° 0 mm 1 m/S 607 mmHg 60%

    30 Juni, Freitag

    Zeit Temperatur Niederschläge Wind Luftdruck Luftfeuchtigkeit
    00:00 +8°C° 0 mm 1 m/S 607 mmHg 62%
    01:00 +7°C° 0 mm 1 m/S 607 mmHg 64%
    02:00 +7°C° 0 mm 1 m/S 607 mmHg 64%
    03:00 +7°C° 0 mm 1 m/S 606 mmHg 64%
    04:00 +7°C° 0 mm 1 m/S 606 mmHg 65%
    05:00 +8°C° 0 mm 1 m/S 607 mmHg 57%
    06:00 +8°C° 0 mm 1 m/S 607 mmHg 49%
    07:00 +9°C° 0 mm 1 m/S 608 mmHg 41%
    08:00 +14°C° 0 mm 1 m/S 610 mmHg 33%
    09:00 +19°C° 0 mm 1 m/S 612 mmHg 24%
    10:00 +24°C° 0 mm 1 m/S 614 mmHg 16%
    11:00 +26°C° 0 mm 1 m/S 614 mmHg 15%
    12:00 +27°C° 0 mm 1 m/S 614 mmHg 14%
    13:00 +29°C° 0 mm 1 m/S 614 mmHg 13%
    14:00 +28°C° 0 mm 1 m/S 613 mmHg 14%
    15:00 +27°C° 0 mm 1 m/S 613 mmHg 14%
    16:00 +26°C° 0 mm 2 m/S 612 mmHg 15%
    17:00 +21°C° 0 mm 2 m/S 611 mmHg 23%
    18:00 +16°C° 0 mm 1 m/S 609 mmHg 32%
    19:00 +12°C° 0 mm 1 m/S 608 mmHg 40%
    20:00 +11°C° 0 mm 1 m/S 608 mmHg 45%
    21:00 +10°C° 0 mm 1 m/S 607 mmHg 50%
    22:00 +9°C° 0 mm 1 m/S 607 mmHg 55%
    23:00 +9°C° 0 mm 1 m/S 607 mmHg 53%

    1 Juli, Samstag

    Zeit Temperatur Niederschläge Wind Luftdruck Luftfeuchtigkeit
    00:00 +9°C° 0 mm 1 m/S 607 mmHg 51%
    01:00 +9°C° 0 mm 1 m/S 607 mmHg 50%
    02:00 +9°C° 0 mm 1 m/S 607 mmHg 50%
    03:00 +9°C° 0 mm 1 m/S 607 mmHg 50%
    04:00 +9°C° 0 mm 1 m/S 607 mmHg 50%
    05:00 +9°C° 0 mm 1 m/S 607 mmHg 47%
    06:00 +10°C° 0 mm 1 m/S 608 mmHg 44%
    07:00 +9°C° 0 mm 2 m/S 608 mmHg 41%
    08:00 +14°C° 0 mm 2 m/S 610 mmHg 33%
    09:00 +19°C° 0 mm 2 m/S 612 mmHg 26%
    10:00 +24°C° 0 mm 3 m/S 614 mmHg 18%
    11:00 +25°C° 0 mm 2 m/S 614 mmHg 17%
    12:00 +27°C° 0 mm 2 m/S 613 mmHg 15%
    13:00 +28°C° 0 mm 2 m/S 613 mmHg 14%
    14:00 +27°C° 0 mm 1 m/S 613 mmHg 15%
    15:00 +27°C° 0 mm 1 m/S 612 mmHg 15%
    16:00 +27°C° 0 mm 1 m/S 612 mmHg 15%
    17:00 +22°C° 0 mm 1 m/S 610 mmHg 25%
    18:00 +18°C° 0 mm 1 m/S 609 mmHg 35%
    19:00 +12°C° 0 mm 1 m/S 608 mmHg 44%
    20:00 +11°C° 0 mm 1 m/S 608 mmHg 49%
    21:00 +10°C° 0 mm 1 m/S 607 mmHg 53%
    22:00 +9°C° 0 mm 1 m/S 607 mmHg 58%
    23:00 +9°C° 0 mm 1 m/S 607 mmHg 58%
    Mehr zeigen